Other Public Products
Issued by NWS Charleston, SC

Home | Current Version | Previous Version | Text Only | Print | Product List | Glossary On
Versions: 1 2 3 4 5 6 7 8 9 10 11 12 13 14 15 16 17 18 19 20 21 22 23 24 25 26 27 28 29 30 31 32 33 34 35 36 37 38 39 40 41 42 43 44 45 46 47 48 49 50
000
FPUS82 KCHS 230312
OPUCHS

TEST...KCHS/KSAV Gateway Observations...TEST
National Weather Service Charleston SC
1100 PM EDT SAT JUL 22 2017

NOTE: "fair" indicates few or no clouds below 12,000 feet with no
significant weather and/or obstructions to visibility.

SCZ050-WAZ558-NCZ071-TXZ119-213-PAZ071-DCZ001-FLZ074-172-MI076-
NYZ176-178-MAZ016-IL014-TNZ027-NJZ106-GAZ044-MD014-230400-

...Gateway Observations for Charleston International...

CITY           SKY/WX    TMP DP  RH WIND       PRES   REMARKS
Chas Airport   CLEAR     81  75  82 S9        29.97F
Seattle        PTCLDY    74  57  55 N14       30.09S
Charlotte      PTCLDY    86  71  60 SW10      29.94R HX  91
Dallas DFW     CLEAR     92  70  48 SE15      29.86R HX  97
Dallas Love    PTCLDY    92  69  47 SE16      29.87R HX  97
Philladelphia  CLOUDY    82  70  66 SW13      29.75F
Wash National  TSTM      76  74  93 CALM      29.80R
Baltimore      LGT RAIN  74  73  97 SW6       29.80R
Miami          CLOUDY    84  74  71 E6        30.07S HX  91
Detroit        MOCLDY    76  70  82 NW8       29.80R
Newark         HVY RAIN  76  73  91 S6        29.76F FOG
Laguardia      CLOUDY    79  75  87 S6        29.75F
J F K          LGT RAIN  76  74  93 S7        29.78F
Boston Logan   CLOUDY    74  65  73 S3        29.78R
Ft. Lauderdale CLOUDY    84  74  71 SE5       30.06S HX  91
Chicago O`Hare FAIR      77  69  76 NE3       29.82R
Chicago Midway MOCLDY    78  69  73 E6        29.82R
Houston Bush   CLOUDY    76  75  97 CALM      29.92R
Houston Hobby  MOCLDY    84  74  71 S7        29.93R HX  91
Nashville      PTCLDY    87  73  62 SW7       29.93R HX  94
Atlanta        PTCLDY    78  74  87 SW5       29.99F

$$

GAZ044-118-TXZ119-213-NCZ071-DCZ001-MDZ014-506-PAZ021-071-NJZ106-
NYZ176-178-MAZ106-OHZ011-021-055-MIZ076-KYZ091-ILZ014-INZ047-
MNZ060-ONZ431-230400-

...Gateway Observations for Savannah International...

CITY           SKY/WX    TMP DP  RH WIND       PRES   REMARKS
Savannah Arpt  CLEAR     81  72  74 S7        29.99R
Atlanta        PTCLDY    78  74  87 SW5       29.99F
Charlotte      PTCLDY    86  71  60 SW10      29.94R HX  91
Dallas DFW     CLEAR     92  70  48 SE15      29.86R HX  97
Houston Bush   CLOUDY    76  75  97 CALM      29.92R
Wash National  TSTM      76  74  93 CALM      29.80R
Wash Dulles    LGT RAIN  73  71  93 S3        29.80F
Baltimore      LGT RAIN  74  73  97 SW6       29.80R
Philadelphia   CLOUDY    82  70  66 SW13      29.75F
Newark         HVY RAIN  76  73  91 S6        29.76F FOG
Laguardia      CLOUDY    79  75  87 S6        29.75F
J F K          LGT RAIN  76  74  93 S7        29.78F
Boston         CLOUDY    74  65  73 S3        29.78R
Pittsburg      MOCLDY    73  72  96 CALM      29.82S
Akron          PTCLDY    76  72  87 W5        29.81F
Cleveland      MOCLDY    80  71  74 W8        29.80R
Cincinnati     CLOUDY    78  76  93 SW6       29.85F THUNDER
Columbus       CLOUDY    74  72  95 SW3       29.82S
Detroit        MOCLDY    76  70  82 NW8       29.80R
Chicago O`Hare FAIR      77  69  76 NE3       29.82R
Minneapolis    PTCLDY    80  60  50 N6        29.84R
Indianapolis   TSTM      80  75  84 S7        29.84R
Toronto Canada LGT RAIN  70  64  83 CALM      29.82

$$




USA.gov is the U.S. government's official web portal to all federal, state and local government web resources and services.